Home   Weather   Nagaur   Past weeks

Flag for India Past Weather in Nagaur, Rajasthan, India — Yesterday and Last 2 Weeks

Now
79 °F

Passing clouds.


Feels Like: 79 °F
Forecast: 71 / 99 °F
Wind: 8 mph from Northeast

Location: Jaipur / Sanganer

Current Time: Apr 26, 2017 at 2:02:06 am

Latest Report: Apr 26, 2017 at 1:00 am


Visibility: 2 mi

Pressure: 29.83 "Hg

Humidity: 45%

Dew Point: 55 °F

Location of NagaurLocation

Past Weather in Nagaur — Graph

°F

Nagaur Temperature Yesterday

Maximum temperature yesterday: 99 °F (at 12:30 pm)
Minimum temperature yesterday: 79 °F (at 6:00 am)
Average temperature yesterday: 86 °F

High & Low Weather Summary for the Past Weeks

 TemperatureHumidityPressure
High109 °F (Apr 16, 4:00 pm)48% (Apr 25, 10:30 pm)29.95 "Hg (Apr 25, 10:30 pm)
Low72 °F (Apr 11, 4:30 am)3% (Apr 15, 5:30 pm)29.56 "Hg (Apr 20, 4:00 pm)
Average93 °F16%29.75 "Hg
* Reported Apr 10 11:30 pm — Apr 25 11:30 pm, Nagaur, Weather by CustomWeather, © 2017

Note: Actual official high and low records may vary slightly from our data, if they occured in-between our weather recording intervals... More about our weather records

Advertising

Nagaur Weather History for the Previous 24 Hours

Scroll right to see more
 ConditionsComfort  
Time TempWeatherWind HumidityBarometerVisibility
11:30 pm
Tue, Apr 25
81 °FPassing clouds.6 mph42%29.80 "Hg2 mi
11:00 pm79 °FPassing clouds.1 mph48%29.80 "Hg2 mi
10:30 pm79 °FPassing clouds.3 mph48%29.80 "Hg2 mi
10:00 pm79 °FPassing clouds.1 mph45%29.80 "Hg2 mi
9:30 pm79 °FPassing clouds.7 mph42%29.77 "Hg2 mi
9:00 pm81 °FThunderstorms. Partly cloudy.7 mph39%29.77 "Hg2 mi
8:00 pm82 °FThunderstorms. Partly cloudy.13 mph35%29.74 "Hg2 mi
7:30 pm82 °FThunderstorms. Partly cloudy.8 mph37%29.74 "Hg2 mi
7:00 pm84 °FThunderstorms. Scattered clouds.14 mph33%29.74 "Hg2 mi
6:30 pm88 °FThunderstorms. Broken clouds.6 mph33%29.71 "Hg2 mi
5:30 pm88 °FThunderstorms. Broken clouds.6 mph35%29.71 "Hg2 mi
5:00 pm88 °FThunderstorms. Broken clouds.6 mph35%29.71 "Hg2 mi
4:30 pm82 °FThunderstorms. Broken clouds.17 mph42%29.74 "Hg2 mi
4:00 pm86 °FThunderstorms. Broken clouds.12 mph40%29.74 "Hg2 mi
3:30 pm86 °FThunderstorms. Broken clouds.9 mph38%29.74 "Hg2 mi
3:00 pm90 °FDrizzle. Broken clouds.3 mph29%29.74 "Hg2 mi
2:30 pm93 °FBroken clouds.10 mph21%29.77 "Hg2 mi
2:00 pm95 °FBroken clouds.14 mph18%29.77 "Hg2 mi
1:30 pm95 °FBroken clouds.10 mph19%29.77 "Hg2 mi
1:00 pm97 °FScattered clouds.12 mph17%29.80 "Hg3 mi
12:30 pm99 °FScattered clouds.14 mph15%29.80 "Hg3 mi
12:00 pm95 °FHaze.10 mph19%29.83 "Hg3 mi
11:30 am95 °FHaze.10 mph20%29.83 "Hg3 mi
11:00 am95 °FHaze.10 mph20%29.83 "Hg3 mi
10:00 am90 °FScattered clouds.10 mph31%29.86 "Hg3 mi
9:00 am88 °FScattered clouds.14 mph33%29.86 "Hg3 mi
8:30 am88 °FScattered clouds.13 mph17%29.86 "Hg3 mi
8:00 am86 °FScattered clouds.8 mph31%29.83 "Hg3 mi
7:00 am82 °FHaze.6 mph26%29.80 "Hg3 mi
6:30 am81 °FHaze.5 mph21%29.80 "Hg3 mi
6:00 am79 °FHaze.5 mph21%29.77 "Hg3 mi
5:30 am81 °FHaze.6 mph20%29.77 "Hg2 mi
5:00 am81 °FHaze.8 mph20%29.77 "Hg2 mi
4:30 am84 °FHaze.5 mph18%29.77 "Hg2 mi
4:00 am84 °FHaze.5 mph16%29.77 "Hg2 mi
3:30 am84 °FHaze.5 mph16%29.77 "Hg2 mi
3:00 am84 °FHaze.7 mph16%29.77 "Hg2 mi
2:30 am86 °FHaze.5 mph15%29.77 "Hg2 mi
Weather by CustomWeather, © 2017

See weather overviewHow to use our weather pages